Location: Hodgeman County Ambulance
(38.0844°N, 99.8949°W)
Time: 12:18:15
(UTC+00:00)

Nauka - Visible Passes

Search period start: 24 September 2021 00:00
Search period end: 04 October 2021 00:00
Orbit: 419 x 423 km, 51.6° (Epoch: 23 September)

Date Brightness Start Highest point End Pass type
(mag) Time Alt. Az. Time Alt. Az. Time Alt. Az.
25 Sep ? 01:12:23 10° NNW 01:13:12 11° NNW 01:14:02 10° N visible
28 Sep ? 02:07:15 10° N 02:07:48 10° NNE 02:07:56 10° NNE visible
29 Sep ? 02:55:42 10° NNW 02:55:45 10° NNW 02:55:45 10° NNW visible
30 Sep ? 02:09:04 10° NNW 02:10:37 16° N 02:10:37 16° N visible
01 Oct ? 01:22:32 10° N 01:24:10 13° NNE 01:25:31 11° NE visible
01 Oct ? 02:58:17 10° NW 02:58:31 12° NW 02:58:31 12° NW visible
02 Oct ? 02:11:30 10° NW 02:13:28 26° N 02:13:28 26° N visible
03 Oct ? 01:24:46 10° NNW 01:27:33 23° NNE 01:28:29 20° NE visible
03 Oct ? 03:01:18 10° WNW 03:01:29 11° WNW 03:01:29 11° WNW visible
